Location: Prairie Dale
(45.6972°N, 104.5033°W)
Time: 06:45:50
(UTC+00:00)

EO-79 - Pass Details

Date: 01 July 2022
Orbit: 588 x 603 km, 98.0° (Epoch: 15 August)

Event Time Altitude Azimuth Distance (km) Brightness Sun altitude
Rises 09:00:09 0° 10° (N) 2,855 ? -16.1°
Reaches altitude 10° 09:02:21 10° 7° (N) 1,951 ? -16.0°
Maximum altitude 09:06:32 65° 287° (WNW) 667 ? -15.6°
Enters shadow 09:08:40 28° 213° (SSW) 1,146 ? -15.4°
